GW4063 Weather Reports


Display with metric or nautical units.
time (UTC)temp
F
wind
direction
speed
MPH
gust
MPH
rain 1hr
in
rain 24hr
in
rain mn
in
humidity
%
barometer
mb
20260906230036 63 311 9.0 13.0 0.00 0.27 0.18 79 1017.1
20260906224535 62 298 8.0 15.0 0.00 0.27 0.18 82 1017.3
20260906223051 61 326 8.0 14.0 0.00 0.27 0.18 81 1017.4
20260906221535 62 306 7.0 12.0 0.00 0.27 0.18 80 1017.5
20260906220039 62 321 6.0 10.0 0.00 0.27 0.18 79 1017.5
20260906214547 62 243 6.0 9.0 0.00 0.27 0.18 80 1017.4
20260906213034 63 215 3.0 7.0 0.00 0.27 0.18 78 1017.5
20260906211542 63 54 0.0 3.0 0.00 0.27 0.18 78 1017.3
20260906210059 62 300 3.0 10.0 0.00 0.27 0.18 80 1017.2
20260906203039 60 311 11.0 15.0 0.00 0.27 0.18 84 1017.4
20260906201546 60 332 9.0 15.0 0.00 0.27 0.18 84 1017.5
20260906200035 61 350 10.0 16.0 0.00 0.27 0.18 82 1017.5
20260906194537 61 315 6.0 11.0 0.00 0.27 0.18 80 1017.6
20260906193033 62 325 11.0 16.0 0.00 0.27 0.18 77 1017.6
20260906191539 64 133 1.0 4.0 0.00 0.27 0.18 74 1017.5
20260906184536 64 70 6.0 10.0 0.00 0.27 0.18 78 1017.3
20260906183036 63 331 8.0 12.0 0.00 0.27 0.18 78 1017.2
20260906181539 61 60 5.0 10.0 0.00 0.27 0.18 85 1017.6
20260906180052 59 12 8.0 12.0 0.01 0.27 0.18 87 1018.3
20260906174549 57 352 11.0 19.0 0.01 0.27 0.18 88 1018.6
20260906173036 56 17 12.0 29.0 0.01 0.27 0.18 92 1018.5
20260906171536 54 355 16.0 25.0 0.01 0.27 0.18 92 1019.5
20260906170033 55 317 13.0 22.0 0.00 0.26 0.17 89 1020.0
20260906164535 56 295 9.0 13.0 0.00 0.26 0.17 89 1019.9
20260906163035 56 5 5.0 11.0 0.00 0.26 0.17 91 1019.6
20260906161535 55 22 7.0 17.0 0.00 0.26 0.17 91 1019.4
20260906154535 54 333 17.0 24.0 0.00 0.26 0.17 92 1019.6
20260906153048 54 336 15.0 22.0 0.09 0.26 0.17 92 1020.1
20260906151549 53 307 9.0 18.0 0.15 0.26 0.17 94 1020.2
20260906150036 53 306 18.0 22.0 0.17 0.26 0.17 94 1020.5
20260906144541 52 296 14.0 21.0 0.17 0.27 0.17 96 1020.8
20260906143042 52 254 16.0 30.0 0.08 0.18 0.08 95 1021.0
20260906141533 55 268 17.0 26.0 0.01 0.11 0.01 90 1020.6
20260906140035 59 55 8.0 18.0 0.00 0.10 0.00 84 1019.9
20260906134544 59 59 11.0 15.0 0.00 0.15 0.00 85 1019.6
20260906133045 59 57 8.0 15.0 0.00 0.15 0.00 84 1019.7
20260906131534 59 66 6.0 10.0 0.00 0.15 0.00 83 1019.5
20260906130034 59 86 4.0 8.0 0.00 0.15 0.00 82 1019.9
20260906124533 60 277 2.0 12.0 0.00 0.15 0.00 79 1020.2
20260906123050 59 352 11.0 17.0 0.00 0.15 0.00 79 1019.5
20260906121541 56 320 9.0 22.0 0.00 0.15 0.00 88 1020.3
20260906120031 58 300 6.0 22.0 0.00 0.15 0.00 85 1020.6
20260906114536 58 80 12.0 20.0 0.00 0.15 0.00 83 1019.9
20260906113035 57 49 7.0 14.0 0.00 0.15 0.00 84 1020.3
20260906111535 57 63 10.0 18.0 0.00 0.15 0.00 78 1020.0
20260906110031 57 61 4.0 10.0 0.00 0.15 0.00 79 1019.8
20260906103038 57 0 0.0 3.0 0.00 0.15 0.00 85 1020.1
20260906101535 56 40 1.0 6.0 0.00 0.15 0.00 87 1020.2
20260906100033 56 271 2.0 4.0 0.00 0.15 0.00 88 1020.2
20260906093037 55 331 12.0 20.0 0.00 0.15 0.00 91 1020.3
20260906091535 54 329 20.0 26.0 0.00 0.15 0.00 92 1020.8
20260906090055 54 306 25.0 31.0 0.00 0.15 0.00 93 1021.4
20260906084534 53 324 7.0 21.0 0.00 0.15 0.00 97 1022.1
20260906083038 53 226 9.0 17.0 0.00 0.15 0.00 95 1022.2
20260906081531 54 346 17.0 28.0 0.00 0.15 0.00 94 1020.3
20260906080034 54 315 22.0 32.0 0.00 0.15 0.00 94 1020.5
20260906074534 55 318 12.0 16.0 0.00 0.15 0.00 91 1021.0
20260906073040 55 5 16.0 25.0 0.00 0.15 0.00 92 1020.6
20260906070038 54 325 19.0 25.0 0.00 0.15 0.00 93 1021.6
20260906064534 55 323 22.0 29.0 0.00 0.15 0.00 93 1021.8
20260906063045 54 304 25.0 30.0 0.00 0.15 0.00 93 1022.0
20260906061536 54 299 23.0 29.0 0.00 0.15 0.00 92 1022.3
20260906060033 55 335 17.0 23.0 0.00 0.15 0.00 90 1021.9
20260906054536 55 346 17.0 23.0 0.03 0.15 0.15 88 1021.6
20260906053036 55 338 17.0 23.0 0.03 0.15 0.15 89 1021.8
20260906051552 55 5 17.0 30.0 0.03 0.15 0.15 87 1021.8
20260906050040 55 309 20.0 28.0 0.03 0.15 0.15 88 1021.7
20260906044541 56 314 9.0 14.0 0.01 0.12 0.12 86 1022.5
20260906043043 56 350 12.0 18.0 0.04 0.12 0.12 84 1021.2
20260906041536 56 13 15.0 20.0 0.06 0.12 0.12 86 1021.1
20260906040038 56 337 16.0 27.0 0.06 0.12 0.12 86 1021.2
20260906034539 56 330 24.0 30.0 0.05 0.11 0.11 87 1021.0
20260906033035 57 350 18.0 21.0 0.02 0.08 0.08 82 1022.7
20260906031542 59 333 17.0 26.0 0.00 0.06 0.06 75 1021.6
20260906030032 59 355 19.0 28.0 0.00 0.06 0.06 75 1020.7
20260906024534 59 360 19.0 25.0 0.00 0.06 0.06 74 1019.9
20260906023034 59 5 18.0 27.0 0.00 0.06 0.06 74 1019.6
20260906021534 60 327 18.0 26.0 0.00 0.06 0.06 73 1019.8
20260906020034 60 315 18.0 23.0 0.00 0.06 0.06 72 1019.7
20260906014536 61 346 15.0 21.0 0.00 0.06 0.06 71 1019.9
20260906013052 62 338 15.0 20.0 0.00 0.06 0.06 70 1019.9
20260906011545 62 333 14.0 22.0 0.00 0.06 0.06 70 1019.9
20260906010036 62 350 15.0 22.0 0.00 0.06 0.06 69 1020.0
20260906004537 62 330 18.0 26.0 0.00 0.06 0.06 68 1020.0
20260906003036 64 337 20.0 27.0 0.00 0.06 0.06 68 1020.0
20260906001537 65 333 18.0 25.0 0.00 0.06 0.06 66 1020.2
20260906000034 65 312 17.0 23.0 0.00 0.06 0.06 65 1020.3
20260905234532 66 317 18.0 22.0 0.00 0.06 0.06 63 1020.6
20260905233041 66 345 16.0 20.0 0.00 0.06 0.06 62 1020.5
20260905231536 67 322 14.0 20.0 0.00 0.06 0.06 61 1020.4